User: anonymous   Login
Location: The Saddle
(36.8333°N, 80.3417°W)
Time: 03:57:18
(UTC-05:00)
Language:

XW-2F - Orbit

View from above orbital plane
View from above orbital plane
View from above satellite
View from above satellite

Ground track
Ground track

The orbit data is extracted from the following two-line orbital elements,

1 40910U 15049M   24063.84498707  .00316555  00000-0  16426-2 0  9991
2 40910  97.4309  91.4693 0003775 188.9533 171.1668 15.80151315469435
Epoch (UTC): 03 March 2024 20:16:46
Eccentricity: 0.0003775
inclination: 97.4309°
perigee height: 327 km
apogee height: 332 km
right ascension of ascending node: 91.4693°
argument of perigee: 188.9533°
revolutions per day: 15.80151315
mean anomaly at epoch: 171.1668°
orbit number at epoch: 46943

The dashed part of the orbit path shows where the satellite is in the earth's shadow,  

DLR